VK4TW-13 Weather Reports


time (UTC)temp
C
wind
direction
speed
KPH
gust
KPH
rain 1hr
cm
rain 24hr
cm
rain mn
cm
humidity
%
barometer
mb
20260503032911 28 112 8.0 9.7 0.00 0.00 0.13 100 1015.6
20260503031912 28 90 3.2 11.3 0.00 0.00 0.13 100 1015.7
20260503031609 28 107 11.3 11.3 0.00 0.00 0.13 100 1015.9
20260503031203 28 99 3.2 11.3 0.00 0.00 0.13 100 1015.9
20260503030834 28 112 11.3 14.5 0.00 0.00 0.13 100 1015.8
20260503030530 28 111 1.6 12.9 0.00 0.00 0.13 100 1015.9
20260503030229 28 104 11.3 11.3 0.00 0.00 0.13 100 1015.9
20260503025914 28 91 3.2 11.3 0.00 0.00 0.13 100 1016.0
20260503025608 28 108 11.3 11.3 0.00 0.00 0.13 100 1016.0
20260503025227 28 97 3.2 12.9 0.00 0.00 0.13 100 1016.0
20260503024725 28 101 11.3 11.3 0.00 0.00 0.13 100 1016.0
20260503024331 28 95 3.2 11.3 0.00 0.00 0.13 100 1016.2
20260503024029 28 108 12.9 12.9 0.00 0.00 0.13 100 1016.2
20260503023731 28 103 3.2 11.3 0.00 0.00 0.13 100 1016.3
20260503023353 28 99 11.3 11.3 0.00 0.00 0.13 100 1016.3
20260503022950 28 110 1.6 14.5 0.00 0.00 0.13 100 1016.4
20260503022651 28 105 12.9 12.9 0.00 0.00 0.13 100 1016.4
20260503022144 28 98 3.2 14.5 0.00 0.00 0.13 100 1016.4
20260503021808 28 88 12.9 12.9 0.00 0.00 0.13 100 1016.5
20260503021043 28 88 3.2 12.9 0.00 0.00 0.13 100 1016.5
20260503020708 28 101 12.9 12.9 0.00 0.00 0.13 100 1016.5
20260503015748 28 84 3.2 17.7 0.00 0.00 0.13 100 1016.6
20260503014929 28 92 3.2 12.9 0.00 0.00 0.13 100 1016.7
20260503014623 28 102 11.3 11.3 0.00 0.00 0.13 100 1016.7
20260503013844 28 89 3.2 12.9 0.00 0.00 0.13 100 1016.9
20260503013443 28 107 11.3 12.9 0.00 0.00 0.13 100 1017.1
20260503012844 28 105 1.6 12.9 0.00 0.00 0.13 100 1017.0
20260503012305 28 98 9.7 9.7 0.00 0.00 0.13 100 1017.2
20260503011951 28 94 1.6 12.9 0.00 0.00 0.13 100 1017.3
20260503011527 28 108 9.7 9.7 0.00 0.00 0.13 100 1017.2
20260503011150 28 112 1.6 14.5 0.00 0.00 0.13 100 1017.3
20260503010751 28 96 11.3 11.3 0.00 0.00 0.13 100 1017.3
20260503010208 28 99 1.6 12.9 0.00 0.00 0.13 100 1017.5
20260503005906 28 93 12.9 14.5 0.00 0.00 0.13 100 1017.5
20260503005130 28 101 12.9 19.3 0.00 0.00 0.13 100 1017.6
20260503004830 27 95 3.2 11.3 0.00 0.00 0.13 100 1017.6
20260503004439 27 96 11.3 11.3 0.00 0.00 0.13 100 1017.6
20260503004132 27 83 3.2 11.3 0.00 0.00 0.13 100 1017.7
20260503003756 27 96 11.3 11.3 0.00 0.00 0.13 100 1017.7
20260503003024 27 90 3.2 11.3 0.00 0.00 0.13 100 1018.0
20260503002024 26 102 6.4 11.3 0.00 0.00 0.13 100 1017.9
20260503001026 26 99 4.8 17.7 0.00 0.00 0.13 100 1017.8
20260503000722 26 104 17.7 17.7 0.00 0.00 0.13 100 1017.8
20260503000140 26 75 9.7 17.7 0.00 0.00 0.13 100 1017.8
20260502235635 26 112 1.6 16.1 0.00 0.00 0.13 100 1017.8
20260502234954 25 101 9.7 25.7 0.00 0.00 0.13 100 1017.8
20260502234655 25 83 22.5 22.5 0.00 0.00 0.13 100 1017.9
20260502234346 25 82 14.5 29.0 0.00 0.00 0.13 100 1017.9
20260502234043 25 93 4.8 30.6 0.00 0.00 0.13 100 1018.0
20260502233552 25 98 12.9 32.2 0.00 0.00 0.13 100 1017.9
20260502233249 25 103 20.9 20.9 0.00 0.00 0.13 100 1018.0
20260502232552 25 100 8.0 27.4 0.00 0.00 0.13 100 1017.9
20260502232252 24 104 19.3 27.4 0.00 0.00 0.13 100 1017.9
20260502231624 24 80 20.9 30.6 0.00 0.00 0.13 100 1017.9
20260502231219 24 87 11.3 32.2 0.00 0.00 0.13 100 1017.9
20260502230914 24 95 19.3 29.0 0.00 0.00 0.13 100 1018.0
20260502230611 24 89 9.7 25.7 0.00 0.00 0.13 100 1017.8
20260502230252 24 95 17.7 19.3 0.00 0.00 0.13 100 1018.0
20260502225941 23 93 9.7 19.3 0.00 0.00 0.13 100 1018.0
20260502225621 23 104 19.3 20.9 0.00 0.00 0.13 100 1017.9
20260502225150 23 87 9.7 22.5 0.00 0.00 0.13 100 1017.9
20260502224849 23 106 19.3 19.3 0.00 0.00 0.13 100 1017.8
20260502224348 23 72 11.3 11.3 0.00 0.00 0.13 100 1017.8
20260502223613 23 112 1.6 11.3 0.00 0.00 0.13 100 1017.8
20260502223206 23 81 11.3 11.3 0.00 0.00 0.13 100 1017.9
20260502222500 22 102 1.6 9.7 0.00 0.00 0.13 100 1017.9
20260502221458 22 108 3.2 16.1 0.00 0.00 0.13 100 1017.6
20260502221157 22 89 12.9 12.9 0.00 0.00 0.13 100 1017.6
20260502220715 22 94 4.8 19.3 0.00 0.00 0.13 100 1017.8
20260502220414 22 106 19.3 19.3 0.00 0.00 0.13 100 1017.7
20260502220114 22 83 9.7 9.7 0.00 0.00 0.13 100 1017.7
20260502214914 21 81 9.7 9.7 0.00 0.00 0.13 100 1017.6
20260502214223 21 112 1.6 9.7 0.00 0.00 0.13 100 1017.7
20260502213921 21 67 9.7 9.7 0.00 0.00 0.13 100 1017.5
20260502213440 21 112 1.6 6.4 0.00 0.00 0.13 100 1017.4
20260502212442 21 94 1.6 8.0 0.00 0.00 0.13 100 1017.5
20260502211438 21 101 1.6 8.0 0.00 0.00 0.13 100 1017.4
20260502210439 21 104 3.2 9.7 0.00 0.00 0.13 100 1017.3
20260502210057 21 112 11.3 11.3 0.00 0.00 0.13 100 1017.1
20260502205746 21 102 3.2 12.9 0.00 0.00 0.13 100 1017.1
20260502205408 21 73 11.3 11.3 0.00 0.00 0.05 100 1017.1
20260502205041 21 68 3.2 11.3 0.00 0.00 0.05 100 1017.0
20260502204039 21 81 9.7 9.7 0.00 0.00 0.05 100 1016.9
20260502203722 21 91 1.6 14.5 0.00 0.00 0.05 100 1017.0
20260502203357 21 72 9.7 9.7 0.00 0.00 0.05 100 1016.8
20260502202510 21 94 1.6 6.4 0.00 0.00 0.05 100 1016.7
20260502201509 20 81 1.6 9.7 0.00 0.00 0.05 100 1016.7
20260502201131 20 91 9.7 9.7 0.00 0.00 0.05 100 1016.8
20260502200514 21 91 1.6 8.0 0.00 0.00 0.05 100 1016.7
20260502195513 20 92 3.2 8.0 0.00 0.00 0.05 100 1016.5
20260502194513 20 99 1.6 9.7 0.00 0.00 0.05 100 1016.5
20260502193511 21 97 1.6 8.0 0.00 0.00 0.05 100 1016.5
20260502192511 21 92 3.2 9.7 0.00 0.00 0.05 100 1016.5
20260502191510 21 85 6.4 9.7 0.00 0.00 0.05 100 1016.3
20260502190509 21 90 4.8 8.0 0.00 0.00 0.05 100 1016.3
20260502185508 21 99 3.2 6.4 0.00 0.00 0.05 100 1016.3
20260502184507 21 112 1.6 11.3 0.00 0.00 0.05 100 1016.2
20260502184207 21 72 11.3 11.3 0.00 0.00 0.05 100 1016.3
20260502183414 21 89 3.2 12.9 0.00 0.00 0.05 100 1016.2
20260502183106 21 101 11.3 12.9 0.00 0.00 0.05 100 1016.3
20260502182805 21 100 1.6 9.7 0.00 0.00 0.05 100 1016.3
20260502181805 21 95 8.0 8.0 0.00 0.00 0.05 100 1016.4
20260502181248 21 107 0.0 6.4 0.00 0.00 0.05 100 1016.3
20260502180247 21 94 1.6 17.7 0.00 0.00 0.00 100 1016.2
20260502170437 21 105 9.7 9.7 0.00 0.00 0.00 100 1016.1
20260502164236 21 73 11.3 11.3 0.00 0.00 0.00 100 1016.2
20260502163845 21 112 1.6 9.7 0.00 0.00 0.00 100 1016.2
20260502162845 21 103 3.2 6.4 0.00 0.00 0.00 100 1016.3
20260502161846 22 68 6.4 8.0 0.00 0.00 0.00 100 1016.4
20260502160843 21 101 3.2 6.4 0.00 0.00 0.00 100 1016.4
20260502151627 22 90 1.6 11.3 0.00 0.00 0.00 100 1016.7
20260502150347 22 101 1.6 14.5 0.00 0.00 0.00 100 1016.8
20260502122944 22 108 3.2 6.4 0.00 0.00 0.00 100 1017.5
20260502121944 22 86 3.2 9.7 0.00 0.00 0.00 100 1017.5
20260502120942 22 90 3.2 4.8 0.00 0.00 0.00 100 1017.5
20260502114942 22 93 4.8 11.3 0.00 0.00 0.00 100 1017.4
20260502113940 22 82 4.8 6.4 0.00 0.00 0.00 100 1017.4
20260502112939 22 112 1.6 8.0 0.00 0.00 0.00 100 1017.5
20260502111939 22 112 1.6 8.0 0.00 0.00 0.00 100 1017.5
20260502110937 22 105 3.2 6.4 0.00 0.00 0.00 100 1017.7
20260502105936 22 102 4.8 8.0 0.00 0.00 0.00 100 1017.6
20260502104936 22 84 1.6 4.8 0.00 0.00 0.00 100 1017.7
20260502103934 22 112 1.6 4.8 0.00 0.00 0.00 100 1017.7
20260502102933 22 112 1.6 4.8 0.00 0.00 0.00 100 1017.8
20260502101933 23 79 1.6 6.4 0.00 0.00 0.00 100 1017.7
20260502100932 23 94 0.0 8.0 0.00 0.00 0.00 100 1017.5
20260502091341 23 107 9.7 9.7 0.00 0.00 0.00 100 1016.7
20260502090846 23 112 1.6 11.3 0.00 0.00 0.00 100 1016.6
20260502070807 25 112 1.6 9.7 0.00 0.00 0.00 100 1015.6
20260502070500 25 104 9.7 9.7 0.00 0.00 0.00 100 1015.5
20260502065459 25 106 3.2 8.0 0.00 0.00 0.00 100 1015.4
20260502064459 25 103 3.2 12.9 0.00 0.00 0.00 100 1015.3
20260502064135 25 108 11.3 11.3 0.00 0.00 0.00 100 1015.3
20260502063522 25 99 3.2 14.5 0.00 0.00 0.00 100 1015.3
20260502063144 25 109 11.3 11.3 0.00 0.00 0.00 100 1015.2
20260502062551 25 95 1.6 11.3 0.00 0.00 0.00 100 1015.3
20260502061553 25 91 3.2 14.5 0.00 0.00 0.00 100 1015.1
20260502061407 25 106 12.9 12.9 0.00 0.00 0.00 100 1015.2
20260502061253 25 106 12.9 12.9 0.00 0.00 0.00 100 1015.2
20260502060805 25 112 4.8 12.9 0.00 0.00 0.00 100 1015.1
20260502060440 25 101 12.9 12.9 0.00 0.00 0.00 100 1015.2
20260502055846 25 96 4.8 9.7 0.00 0.00 0.00 100 1015.1
20260502054846 26 99 3.2 9.7 0.00 0.00 0.00 100 1015.1
20260502054531 26 99 11.3 11.3 0.00 0.00 0.00 100 1015.0
20260502054141 26 104 3.2 11.3 0.00 0.00 0.00 100 1015.0
20260502053833 26 108 11.3 14.5 0.00 0.00 0.00 100 1015.0
20260502053404 26 107 3.2 11.3 0.00 0.00 0.00 100 1015.0
20260502053103 26 108 11.3 11.3 0.00 0.00 0.00 100 1015.0
20260502052412 26 104 3.2 6.4 0.00 0.00 0.00 100 1015.0
20260502051412 26 112 3.2 12.9 0.00 0.00 0.00 100 1014.9
20260502051051 26 105 11.3 11.3 0.00 0.00 0.00 100 1015.0
20260502045759 26 109 11.3 11.3 0.00 0.00 0.00 100 1015.1
20260502044908 26 99 3.2 11.3 0.00 0.00 0.00 100 1015.2
20260502044608 26 104 11.3 11.3 0.00 0.00 0.00 100 1015.3
20260502044137 26 104 3.2 11.3 0.00 0.00 0.00 100 1015.2
20260502043855 26 112 11.3 11.3 0.00 0.00 0.00 100 1015.1
20260502043739 26 112 11.3 11.3 0.00 0.00 0.00 100 1015.1
20260502042839 26 95 3.2 11.3 0.00 0.00 0.00 100 1015.5
20260502042535 26 102 11.3 11.3 0.00 0.00 0.00 100 1015.4
20260502042135 26 106 3.2 12.9 0.00 0.00 0.00 100 1015.2
20260502041832 26 109 11.3 11.3 0.00 0.00 0.00 100 1015.3
20260502041237 26 90 3.2 9.7 0.00 0.00 0.00 100 1015.3
20260502040430 26 104 4.8 14.5 0.00 0.00 0.00 100 1015.4
20260502040239 26 104 4.8 14.5 0.00 0.00 0.00 100 1015.4
20260502035845 27 103 12.9 12.9 0.00 0.00 0.00 100 1015.3
20260502035212 27 110 4.8 14.5 0.00 0.00 0.00 100 1015.5
20260502034911 27 108 17.7 17.7 0.00 0.00 0.00 100 1015.5
20260502034610 27 90 3.2 12.9 0.00 0.00 0.00 100 1015.5
20260502034157 27 108 11.3 14.5 0.00 0.00 0.00 100 1015.5
20260502033652 28 108 3.2 19.3 0.00 0.00 0.00 100 1015.6
20260502033343 28 94 11.3 11.3 0.00 0.00 0.00 100 1015.6